This is the latest recevied weather packets stored in our database for station/object SP1BMW-13. If no packets are shown the sender has not sent any weather packets the latest 1 day(s).
| Time | Temp. | Humidity | Pressure | Rain* | Wind** | Luminosity | Snow |
|---|---|---|---|---|---|---|---|
| 1778008007 | 11.67° C | 92% | 1008 hPa | 0 mm | 0.89 m/s, 342° | 0 W/m² | - |
| 1778007946 | 11.67° C | 92% | 1008.2 hPa | 0 mm | 0.89 m/s, 5° | 0 W/m² | - |
| 1778007886 | 11.67° C | 92% | 1008.1 hPa | 0 mm | 0.89 m/s, 356° | 0 W/m² | - |
| 1778007826 | 11.67° C | 92% | 1008 hPa | 0 mm | 0.89 m/s, 21° | 0 W/m² | - |
| 1778007766 | 11.67° C | 92% | 1007.9 hPa | 0 mm | 0.89 m/s, 8° | 0 W/m² | - |
| 1778007707 | 11.67° C | 92% | 1007.9 hPa | 0 mm | 0.89 m/s, 350° | 0 W/m² | - |
| 1778007587 | 11.67° C | 92% | 1008 hPa | 0 mm | 1.34 m/s, 326° | 0 W/m² | - |
| 1778007526 | 11.67° C | 92% | 1007.8 hPa | 0 mm | 0.45 m/s, 331° | 0 W/m² | - |
| 1778007467 | 11.67° C | 92% | 1007.9 hPa | 0 mm | 0 m/s | 0 W/m² | - |
| 1778007407 | 11.67° C | 92% | 1007.8 hPa | 0 mm | 0 m/s | 0 W/m² | - |
| 1778007346 | 11.67° C | 92% | 1007.7 hPa | 0 mm | 0 m/s | 0 W/m² | - |
| 1778007286 | 11.67° C | 92% | 1007.8 hPa | 0 mm | 0.45 m/s, 342° | 0 W/m² | - |
| 1778007226 | 11.67° C | 92% | 1008 hPa | 0 mm | 1.34 m/s, 328° | 0 W/m² | - |
| 1778007166 | 11.67° C | 92% | 1007.9 hPa | 0 mm | 0.89 m/s, 329° | 0 W/m² | - |
| 1778007107 | 11.67° C | 92% | 1007.9 hPa | 0 mm | 1.79 m/s, 331° | 0 W/m² | - |
| 1778007046 | 11.67° C | 92% | 1007.8 hPa | 0 mm | 0 m/s | 0 W/m² | - |
| 1778006986 | 11.67° C | 92% | 1007.8 hPa | 0 mm | 0.89 m/s, 294° | 0 W/m² | - |
| 1778006926 | 11.67° C | 92% | 1007.9 hPa | 0 mm | 0 m/s | 0 W/m² | - |
| 1778006866 | 11.67° C | 92% | 1007.9 hPa | 0 mm | 0.89 m/s, 14° | 1 W/m² | - |
| 1778006806 | 11.67° C | 92% | 1007.8 hPa | 0 mm | 0.89 m/s, 335° | 1 W/m² | - |
| 1778006746 | 11.67° C | 92% | 1007.9 hPa | 0 mm | 0.45 m/s, 332° | 1 W/m² | - |
| 1778006686 | 11.67° C | 92% | 1007.9 hPa | 0 mm | 0.89 m/s, 295° | 1 W/m² | - |
| 1778006626 | 11.67° C | 92% | 1007.9 hPa | 0 mm | 0.45 m/s, 296° | 1 W/m² | - |
| 1778006566 | 12.22° C | 92% | 1007.9 hPa | 0 mm | 1.34 m/s, 330° | 1 W/m² | - |
| 1778006506 | 12.22° C | 92% | 1007.8 hPa | 0 mm | 0.89 m/s, 318° | 1 W/m² | - |
* Rain latest hour (hover to see other rain measurements)
** Current wind speed in m/s (hover to see current wind gust speed)